Terug naar catalogus

COSMOS 1030 DEB

LostHEO
NORAD 32974·DEBRIS·🇷🇺 Russia

Gelanceerd Sep 6, 1978 vanaf Plesetsk Cosmodrome

Loading…

Volgende Passages (komende 24 uur)

TLE

VerouderdSource: Space-Track

Epoch: Aug 14, 2015, 07:29 UTC

1 32974U 78083S   15226.31214396  .00000601  00000-0  00000+0 0  9992
2 32974  67.2799  65.2066 5711197  87.5226  50.9838  1.99619725 64667

Volg COSMOS 1030 DEB in realtime met AllMySat

Download on the App Store